{"data":{"norad_id":61643,"epoch":"2026-09-21T00:58:36.747840Z","epoch_age_seconds":145298,"freshness":"FRESH","line1":"1 61643U 24191Y   26264.04070310 -.00037031  00000+0 -13444-2 0  9995","line2":"2 61643  42.9968 131.1903 0000162 314.4685  45.6153 15.27544632108178","mean_motion":15.27544632,"eccentricity":1.62e-5,"inclination_deg":42.9968,"raan_deg":131.1903,"arg_perigee_deg":314.4685,"mean_anomaly_deg":45.6153,"bstar":-0.0013444,"rev_number":10817,"period_min":94.268931318532,"perigee_km":483.04384966816,"apogee_km":483.26615552904,"semimajor_km":6861.2920025986,"source":"CELESTRAK","updated_at":"2026-09-22T09:00:49.399353Z"}}